Regional Weather Roundup
Issued by NWS Sterling, VA

Home | Current Version | Previous Version | Graphics & Text | Print | Product List | Glossary On
Versions: 1 2 3 4 5 6 7 8 9 10 11 12 13 14 15 16 17 18 19 20 21 22 23 24 25 26 27 28 29 30 31 32 33 34 35 36 37 38 39 40 41 42 43 44 45 46 47 48 49 50
000
ASUS41 KLWX 291010
RWRLWX

REGIONAL WEATHER ROUNDUP
NATIONAL WEATHER SERVICE BALTIMORE MD/WASHINGTON DC
600 AM EDT TUE JUL 29 2014

Note: "FAIR" indicates few or no clouds below 12,000 feet
with no significant weather and/or obstructions to visibility.
 TC=TEMPERATURE CELSIUS

 * =Non NWS site. Station does not report precipitation (e.g. rain,
    snow, etc.), thunder, or fog.

DCZ001-MDZ009-015-VAZ040>042-051-053>054-291100-
WASHINGTON METRO
  /KDAA//-FT BELVOIR

CITY           SKY/WX    TMP DP  RH WIND       PRES   REMARKS
WASHINGTON NAT PTCLDY    66  54  65 NW10      29.90R
DULLES         PTCLDY    58  51  78 NW7       29.92R
ANDREWS AFB    MOCLDY    64  54  69 NW13      29.90R
QUANTICO       CLEAR     62  53  72 NW6       29.92R
COLLEGE PARK*  CLEAR     64  55  72 NW3       29.89R
LEESBURG*      CLEAR     59  54  82 NW7       29.92R
GAITHERSBURG*  CLEAR     59  52  77 NW8       29.94R

$$

MDZ006>007-011-014-291100-
BALTIMORE METRO

CITY           SKY/WX    TMP DP  RH WIND       PRES   REMARKS
BWI AIRPORT    PTCLDY    60  56  86 W3        29.88R
MD SCIENCE CTR   N/A     66  57  72 MISG      29.88R
MARTIN STATE   PTCLDY    63  59  88 CALM      29.89R
ANNAPOLIS      CLEAR     64  58  80 W6        29.88R
FORT MEADE*    PTCLDY    57  55  94 CALM      29.91R

$$

MDZ012-015-019>023-291100-
MARYLAND EASTERN SHORE

CITY           SKY/WX    TMP DP  RH WIND       PRES   REMARKS
OCEAN CITY     CLEAR     63  60  90 NW3       29.86R
SALISBURY      CLEAR     66  59  77 MISG        N/A
BAY BRIDGE AP*   N/A     66  55  68 NW9       29.87R
CAMBRIDGE*     MOCLDY    70  59  68 NE3       29.87R
EASTON*        PTCLDY    66  61  82 CALM      29.91R

$$

MDZ017>025-291100-
SOUTHERN MARYLAND

CITY           SKY/WX    TMP DP  RH WIND       PRES   REMARKS
PATUXENT RIVER PTCLDY    64  57  78 W9        29.88R
ST INIGOES     CLEAR     65  56  72 NW6       29.88R
LEONARDTOWN*   CLEAR     59  55  88 W3        29.91R

$$

MDZ003>005-291100-
NORTH CENTRAL MARYLAND

CITY           SKY/WX    TMP DP  RH WIND       PRES   REMARKS
FREDERICK*     CLEAR     61  55  82 W7        29.93R
HAGERSTOWN APT PTCLDY    57  49  74 NW8       29.91R
WESTMINSTER*   MOCLDY    59  57  94 CALM      29.90R

$$

MDZ501>502-291100-
WESTERN MARYLAND

CITY           SKY/WX    TMP DP  RH WIND       PRES   REMARKS
OAKLAND*       CLOUDY    46 N/A N/A NW5       29.97R
CUMBERLAND*    MOCLDY    55  50  82 CALM      29.98S

$$

VAZ025>031-291100-
SHENANDOAH VALLEY

CITY           SKY/WX    TMP DP  RH WIND       PRES   REMARKS
WINCHESTER*    CLEAR     55  50  82 NW6       29.94R
STAUNTON*      CLEAR     51  48  90 CALM      29.96R

$$

WVZ021-048>050-054>055-291100-
EASTERN WEST VIRGINIA PANHANDLE

CITY           SKY/WX    TMP DP  RH WIND       PRES   REMARKS
MARTINSBURG    CLEAR     59  48  67 NW9       29.93R
PETERSBURG*    CLOUDY    52  48  88 CALM      29.97R

$$

VAZ036>039-050-291100-
CENTRAL FOOTHILLS

CITY           SKY/WX    TMP DP  RH WIND       PRES   REMARKS
CHARLOTTESVILL CLEAR     59  50  72 NW6       29.93R
ORANGE*        CLEAR     55  52  88 CALM      29.94R

$$

VAZ055>057-291100-
NORTH AND CENTRAL PIEDMONT

CITY           SKY/WX    TMP DP  RH WIND       PRES   REMARKS
FREDERICKSBRG* CLEAR     63  55  75 CALM      29.91R
STAFFORD*      CLEAR     57  57 100 NW3       29.95R

$$

NCZ024-NYZ072-PAZ021-071-VAZ022-071-291100-
OTHER REGIONAL OBSERVATIONS

CITY           SKY/WX    TMP DP  RH WIND       PRES   REMARKS
NEW YORK CITY  CLEAR     64  53  67 W3        29.82R
PHILADELPHIA   PTCLDY    64  55  72 NW7       29.85R
PITTSBURGH     MOCLDY    52  49  89 NW7       29.96R
ROANOKE        CLOUDY    60  55  83 CALM      29.97R
RICHMOND       MOCLDY    66  56  70 N6        29.91R
RALEIGH        MOCLDY    66  57  72 CALM      29.92R

$$

ANZ530>537-291100-
MARINE OBSERVATIONS

STATION/POSITION TIME  TEMP    WIND        PRES
                       AIR SEA DIR/SP/G
                 (UTC) (F)     (DEG/KT/KT) (MB)
THOMAS PT LIGHT  1000   65 78  310/ 12/ 13 1012.2R
BALT KEY BRIDGE  1000   71     280/  8/ 10 1011.4R
COVE POINT       1000   67     330/  9/ 13 1011.4R
LEWISETTA        1000   69 78  320/  9/ 12 1011.8R
SOLOMONS ISLAND  1000      80                N/A
PINEY POINT      1000          350/ 16/ 19   N/A

$$



USA.gov is the U.S. government's official web portal to all federal, state and local government web resources and services.